THOR ABLESTAR DEB, 246

Orbit data source: Space-Track

THOR ABLESTAR DEB, 246 is space debris in LEO originally from a launch on Thu, 29 Jun 1961 UTC launched from the Air Force Eastern Test Range (AFETR). Debris objects in space refer to the collection of defunct objects orbiting the Earth. Examples of debris include non-operational satellites, rocket bodies, and fragments generated from explosions, collisions, or faulty payload assembly.

Loading next visibility...
Identifier
246, 1961-015CB
Orbit
LEO
Country
Flag of USUS
Related business
Manufacturer
Unknown
Mission
Spacecraft
Bus & Motor
Unknown
Mass
Unknown
Launch date (UTC)
1961-06-29 (64 years ago)
Launch vehicle
Unknown
Launch site
Air Force Eastern Test Range (AFETR)
Object type
Payload
Rocket body
Debris
Shape & HBR
Unknown shape, 0.2 m
Radar Cross Section
Medium (>0.1 m² and <1 m²)

Expand to show TLE details & history
Last TLE update: 8 hours ago

TLE from 8 hours ago
0 THOR ABLESTAR DEB
1 00246U 61015CB  25346.94618751  .00000031  00000-0  90347-4 0  9997
2 00246  66.8698 281.8325 0072163 265.0196  94.2640 13.86129624598058
Epoch: 2025-12-12T22:42Z
TLE epoch observation values (Epoch: 2025-12-12T22:42:30.600Z)
Latitude
-0.00006°
Longitude
-140.67554°
Altitude
948.609 km
Speed
7.376 km/s
True Right ascension
18h 47m 19s
True Declination
0° 00' 00"
Sunlit
Object was in daylight at epoch
Visualization orbit readout
Latitude
Unknown
Longitude
Unknown
Altitude
Unknown
Speed
Unknown
Apparent Right ascension
Unknown
Apparent Declination
Unknown
Sunlit
N/A
Visualization observer readout
Local Sidereal Time
05:21:54
Azimuth
Unknown
Elevation
Unknown
Doppler factor
Unknown
Orbital elements
Apogee altitude
993.429 km
Perigee altitude
887.801 km
Semi-major axis
7,318.752 km
Eccentricity
0.00722
Inclination
66.8698°
RAAN
281.8325°
Arg. of periapsis
265.0196°
True anomaly
95.08806°
Mean anomaly
94.264°
Eccentric anomaly
94.67609°
Mean motion
3.46647 °/min
Orbital period
103.85 mins
BSTAR
0.000090347
Loading maneuver chart data...
Computing Atmospheric mass density...
Loading historical data...
Loading historical data...
Loading historical data...
Loading historical data...
Loading historical data...
Loading historical data...
Loading historical data...

Documentation

Showing up to 5 results
|